Probability
42 42 29 16 10 0 0 0 0 0 0 0 0 0 0 0 0 3 10 6 3 6 19 32 42 42 29 35 42 39 35 35 35 32 35 32 35 29 29 29 35 32 26 42 39 42 35 39 45
39 42 16 6 0 0 0 0 0 0 0 0 0 0 0 0 0 3 3 10 6 10 13 13 35 35 29 39 39 35 32 32 32 26 26 26 32 32 29 32 32 29 29 35 42 39 32 35 45
32 19 6 0 0 0 0 0 3 0 0 0 0 0 0 0 0 3 6 10 6 6 13 23 32 26 26 32 29 35 26 26 23 19 19 23 32 29 32 23 26 26 29 26 35 39 35 42 48
23 13 3 0 0 0 0 0 0 0 0 0 0 0 0 0 6 6 13 10 10 10 13 23 32 23 23 29 29 29 29 23 19 19 16 19 19 19 16 23 23 23 29 29 32 42 42 32 39
6 3 0 0 0 0 0 0 0 0 0 0 0 0 3 6 10 10 10 10 10 10 13 16 32 26 23 23 29 26 26 32 23 13 13 19 16 19 19 23 23 26 29 32 29 32 39 32 39
13 0 0 0 0 0 0 0 0 0 0 0 0 0 3 16 10 13 13 16 16 16 19 16 32 29 26 19 16 16 23 29 23 13 13 16 13 10 16 26 32 29 26 26 32 35 29 29 29
10 3 0 0 0 0 0 0 0 0 0 3 0 0 3 13 16 16 16 19 16 19 19 19 10 19 29 26 19 19 29 23 19 16 16 10 10 16 19 23 26 32 26 26 32 29 23 23 29
6 3 0 3 3 0 0 0 3 3 3 3 3 0 3 10 16 16 19 19 19 19 19 19 16 13 19 23 29 19 16 16 13 19 23 16 16 16 19 13 23 26 29 35 32 26 26 26 26
3 3 3 3 3 0 0 0 0 3 3 3 3 3 6 10 16 19 19 19 19 16 16 16 16 16 6 6 10 19 16 16 10 13 10 10 6 6 10 6 23 29 23 23 29 19 19 26 19
0 3 3 0 0 0 0 0 0 3 3 3 3 10 10 10 16 16 16 16 16 13 13 13 16 16 10 6 13 16 3 16 10 10 6 6 6 6 6 3 13 19 23 23 19 13 6 6 3
0 0 0 0 0 0 0 0 0 0 0 0 3 3 10 10 13 10 16 16 13 10 13 16 13 16 19 16 16 13 10 13 10 6 3 6 3 3 6 10 10 13 10 10 6 6 3 3 6
0 0 0 0 0 0 0 0 0 3 0 3 3 3 10 10 10 10 6 13 10 10 13 16 13 19 13 13 10 10 16 13 10 10 3 3 3 0 3 6 6 10 10 6 6 10 3 0 0
0 0 0 0 3 0 0 0 3 3 3 3 3 6 6 10 10 13 6 6 6 13 13 10 10 16 13 16 16 13 13 6 10 10 0 0 0 0 0 3 6 3 10 10 10 6 0 0 0
0 0 3 3 0 0 0 0 3 3 3 0 0 3 10 10 10 10 13 13 13 16 16 16 10 10 13 13 16 13 10 16 10 6 0 0 0 0 0 0 0 6 6 6 6 0 3 6 3
0 0 0 0 0 0 0 0 3 3 3 0 0 0 0 3 6 13 16 16 13 13 13 16 13 10 13 6 10 6 10 6 10 10 3 0 0 0 0 0 3 3 6 3 6 0 0 0 0
0 0 0 0 0 0 0 0 0 3 3 0 0 0 0 0 3 10 10 13 13 10 10 6 10 10 13 6 10 10 13 6 3 6 6 0 0 0 0 3 3 3 6 10 3 3 3 0 0
0 0 0 0 0 0 0 0 0 0 0 0 0 0 0 0 0 10 10 13 16 13 10 10 3 6 6 10 10 10 10 16 3 6 6 3 0 0 0 3 3 6 10 6 0 6 0 3 3
0 0 0 0 0 0 0 0 0 0 0 0 3 0 0 0 0 0 6 13 16 16 13 13 6 6 10 10 6 6 10 10 10 6 6 6 3 3 3 3 3 0 3 3 6 0 0 0 0
0 0 0 0 0 0 0 0 0 0 0 0 3 0 0 0 0 3 6 6 13 19 19 16 6 3 10 10 10 10 10 10 10 10 6 6 6 0 3 3 0 3 3 0 3 6 3 3 0
0 0 0 0 0 0 0 0 0 0 0 0 0 0 0 0 3 3 3 10 16 19 19 13 6 3 3 6 6 6 6 10 10 10 6 10 3 3 3 0 3 3 10 0 3 10 6 0 0
0 0 0 0 0 0 0 0 0 0 0 0 0 0 0 3 3 3 3 10 10 13 19 13 10 10 10 6 6 3 3 3 10 10 10 10 6 6 0 0 0 0 3 6 6 10 6 0 0
0 0 0 0 0 0 0 0 0 0 0 0 0 0 0 0 3 3 6 6 6 6 13 13 10 10 6 6 6 3 6 10 10 13 10 10 10 6 0 0 0 0 3 3 3 3 6 6 3
0 0 0 0 0 0 0 0 0 0 0 0 0 0 0 0 0 3 3 3 3 6 6 6 10 13 13 10 13 16 10 10 6 3 6 10 13 6 3 3 0 3 3 0 0 0 3 3 6
0 0 0 0 0 0 0 0 0 0 0 0 0 0 0 0 0 0 3 0 3 3 6 6 3 10 13 13 10 16 13 16 10 13 6 6 10 6 3 3 0 0 3 3 3 6 6 6 3
0 0 0 0 0 0 0 0 0 0 0 0 0 0 0 0 0 0 0 0 3 3 6 6 6 6 6 13 13 13 16 16 13 10 6 10 6 6 3 3 3 3 3 3 6 3 6 3 3
0 0 0 0 0 0 0 0 0 0 0 0 0 0 0 0 0 0 0 0 3 3 3 6 10 6 6 6 10 13 13 16 13 10 10 6 3 0 0 3 3 3 3 3 3 3 3 3 3
0 0 0 0 0 0 0 0 0 0 0 0 0 0 0 0 0 0 0 0 3 3 3 6 10 6 6 6 10 13 3 6 10 10 10 6 3 3 3 3 3 3 6 3 6 6 3 0 6
0 0 0 0 0 0 0 0 0 0 0 0 0 0 0 0 0 0 0 0 0 3 3 3 3 6 3 6 6 6 10 6 10 10 10 6 6 3 3 3 3 3 3 3 3 6 10 0 6
0 0 0 0 0 0 0 0 0 0 0 0 0 0 0 0 0 0 0 0 0 3 3 3 3 3 6 6 6 6 10 6 10 10 10 6 3 3 3 3 3 3 3 3 3 3 3 3 0
0 0 0 0 0 0 0 0 0 0 0 0 0 0 0 0 0 0 0 0 0 0 3 3 3 6 6 10 10 10 10 6 10 10 10 10 3 3 3 3 0 0 0 0 0 0 0 3 0
Height
5896 5895 5896 5896 5897 5896 5895 5895 5894 5893 5892 5891 5891 5890 5889 5889 5889 5891 5889 5887 5887 5886 5886 5886 5885 5885 5884 5884 5883 5883 5883 5883 5882 5882 5882 5882 5882 5882 5882 5882 5882 5882 5882 5882 5882 5882 5882 5882 5882
5896 5896 5897 5897 5896 5895 5895 5894 5893 5892 5892 5891 5890 5889 5889 5888 5887 5887 5886 5886 5886 5885 5885 5884 5884 5884 5883 5882 5882 5881 5881 5881 5881 5881 5881 5881 5881 5881 5880 5881 5881 5881 5881 5881 5881 5881 5881 5881 5881
5896 5896 5897 5896 5895 5895 5895 5894 5893 5892 5891 5890 5890 5889 5888 5887 5886 5886 5885 5884 5884 5884 5883 5883 5882 5882 5881 5881 5880 5880 5880 5880 5880 5879 5879 5879 5879 5879 5879 5879 5879 5879 5879 5879 5879 5879 5879 5879 5879
5896 5896 5897 5896 5895 5895 5894 5893 5892 5891 5891 5890 5889 5888 5887 5886 5885 5884 5884 5883 5883 5882 5881 5881 5880 5880 5880 5879 5879 5878 5878 5878 5878 5878 5878 5878 5878 5877 5877 5877 5877 5877 5877 5878 5878 5878 5878 5878 5878
5895 5896 5896 5895 5894 5894 5893 5892 5892 5891 5890 5889 5888 5887 5886 5885 5884 5883 5882 5881 5881 5880 5880 5879 5879 5878 5878 5878 5877 5877 5876 5876 5876 5876 5876 5876 5876 5876 5875 5875 5875 5875 5875 5876 5876 5876 5876 5876 5876
5896 5895 5895 5895 5894 5893 5892 5892 5891 5890 5889 5888 5887 5886 5885 5884 5883 5882 5881 5880 5879 5878 5878 5877 5877 5877 5876 5876 5875 5875 5874 5874 5874 5874 5874 5874 5874 5874 5873 5873 5873 5873 5873 5873 5874 5874 5874 5874 5874
5896 5895 5894 5894 5893 5893 5892 5891 5890 5889 5889 5888 5886 5885 5884 5882 5881 5880 5879 5879 5878 5877 5876 5875 5875 5875 5874 5874 5873 5873 5873 5872 5872 5872 5872 5872 5872 5871 5871 5871 5871 5871 5871 5871 5871 5871 5871 5871 5871
5894 5895 5894 5893 5892 5892 5891 5890 5889 5888 5888 5887 5885 5884 5883 5882 5880 5879 5878 5877 5876 5875 5875 5874 5873 5873 5872 5872 5871 5871 5871 5871 5870 5870 5870 5870 5870 5869 5869 5869 5869 5869 5869 5869 5869 5869 5869 5869 5869
5893 5895 5893 5892 5892 5891 5890 5889 5888 5887 5886 5885 5884 5883 5882 5880 5879 5878 5877 5876 5875 5874 5873 5872 5872 5871 5870 5870 5869 5869 5869 5868 5868 5868 5868 5868 5868 5867 5867 5867 5867 5867 5867 5867 5867 5867 5867 5867 5867
5892 5892 5892 5891 5891 5890 5889 5888 5887 5886 5885 5884 5883 5881 5880 5879 5878 5876 5875 5874 5873 5872 5872 5871 5870 5869 5869 5868 5867 5867 5867 5866 5866 5866 5866 5866 5866 5865 5865 5865 5865 5865 5865 5865 5865 5865 5865 5865 5865
5891 5891 5890 5890 5889 5888 5887 5887 5886 5885 5884 5883 5881 5880 5879 5877 5876 5875 5874 5873 5872 5871 5870 5869 5868 5868 5867 5866 5865 5865 5865 5864 5864 5864 5864 5864 5864 5864 5863 5863 5863 5863 5863 5863 5863 5863 5863 5863 5863
5889 5889 5889 5888 5887 5887 5886 5885 5884 5883 5883 5881 5880 5878 5877 5876 5875 5874 5872 5871 5870 5869 5868 5868 5867 5866 5865 5864 5864 5863 5863 5862 5862 5862 5862 5862 5862 5862 5862 5861 5861 5861 5861 5861 5861 5861 5861 5861 5861
5887 5887 5887 5886 5886 5885 5884 5884 5883 5882 5881 5879 5878 5877 5876 5875 5874 5872 5871 5870 5869 5868 5867 5866 5866 5865 5864 5862 5862 5861 5861 5860 5860 5859 5860 5860 5860 5860 5859 5859 5859 5859 5859 5859 5859 5859 5859 5860 5860
5885 5885 5885 5884 5884 5883 5883 5882 5881 5880 5879 5878 5876 5875 5874 5873 5872 5871 5869 5868 5867 5866 5866 5865 5864 5863 5862 5861 5860 5859 5858 5858 5857 5857 5857 5857 5857 5857 5857 5857 5857 5857 5857 5857 5857 5857 5858 5858 5858
5882 5883 5883 5882 5882 5881 5881 5880 5879 5878 5877 5876 5875 5873 5872 5871 5870 5869 5868 5867 5866 5865 5864 5863 5862 5861 5860 5859 5857 5857 5856 5856 5856 5855 5855 5855 5855 5855 5855 5856 5856 5856 5855 5856 5856 5856 5856 5857 5857
5880 5880 5880 5880 5879 5879 5880 5879 5878 5876 5875 5874 5873 5872 5871 5870 5868 5867 5866 5865 5864 5863 5862 5861 5860 5859 5858 5857 5856 5855 5855 5854 5854 5853 5853 5853 5853 5853 5853 5854 5854 5854 5854 5854 5854 5855 5855 5855 5855
5877 5878 5878 5878 5877 5877 5877 5876 5876 5874 5873 5872 5871 5870 5869 5868 5867 5866 5864 5863 5863 5862 5861 5860 5858 5858 5857 5856 5855 5854 5853 5852 5852 5851 5851 5851 5851 5851 5852 5852 5852 5852 5852 5852 5852 5853 5853 5853 5853
5875 5875 5875 5875 5875 5874 5874 5874 5873 5872 5871 5870 5869 5868 5867 5866 5865 5864 5863 5862 5861 5860 5859 5858 5857 5856 5855 5854 5853 5852 5851 5850 5850 5850 5850 5849 5849 5850 5850 5850 5850 5851 5851 5851 5851 5851 5851 5851 5851
5872 5872 5872 5872 5872 5872 5871 5871 5870 5869 5868 5868 5867 5866 5865 5864 5863 5862 5861 5860 5859 5858 5857 5856 5855 5854 5853 5852 5851 5850 5849 5849 5848 5848 5848 5848 5848 5848 5848 5848 5849 5849 5849 5849 5849 5849 5849 5849 5849
5868 5869 5869 5869 5868 5869 5868 5868 5867 5866 5866 5865 5864 5864 5863 5862 5861 5860 5859 5858 5857 5856 5855 5854 5853 5852 5851 5850 5849 5848 5847 5847 5847 5846 5846 5846 5846 5847 5847 5847 5847 5847 5847 5847 5847 5847 5847 5847 5848
5865 5865 5865 5865 5865 5865 5865 5865 5864 5863 5862 5862 5861 5861 5860 5860 5859 5858 5857 5856 5855 5854 5853 5852 5851 5850 5849 5848 5847 5847 5846 5845 5845 5845 5845 5845 5845 5845 5845 5845 5845 5845 5846 5846 5846 5846 5846 5846 5846
5861 5861 5862 5862 5862 5861 5862 5861 5861 5860 5859 5859 5858 5858 5857 5857 5856 5855 5854 5854 5853 5852 5851 5850 5849 5848 5847 5846 5845 5845 5844 5844 5844 5843 5843 5843 5843 5844 5844 5844 5844 5844 5844 5844 5845 5845 5845 5845 5845
5857 5858 5858 5858 5858 5858 5858 5857 5858 5856 5856 5855 5855 5854 5854 5853 5853 5852 5851 5851 5850 5849 5848 5847 5846 5846 5845 5844 5843 5843 5843 5842 5842 5842 5842 5842 5842 5842 5842 5842 5842 5842 5842 5842 5843 5843 5843 5844 5844
5853 5854 5854 5854 5854 5854 5854 5853 5853 5852 5852 5851 5851 5850 5850 5849 5849 5849 5848 5848 5847 5846 5846 5845 5844 5843 5843 5842 5841 5841 5841 5840 5840 5840 5840 5840 5840 5840 5840 5840 5840 5840 5840 5841 5841 5841 5842 5842 5842
5849 5850 5850 5850 5850 5850 5850 5849 5850 5848 5847 5847 5847 5846 5846 5845 5845 5845 5845 5845 5844 5843 5843 5842 5841 5841 5840 5840 5839 5839 5839 5838 5838 5838 5838 5838 5838 5838 5838 5838 5838 5838 5838 5839 5839 5840 5840 5841 5841
5845 5846 5847 5847 5846 5846 5845 5845 5845 5844 5843 5842 5842 5842 5841 5841 5841 5841 5841 5841 5840 5840 5839 5838 5838 5838 5837 5837 5837 5837 5837 5836 5836 5836 5836 5836 5836 5836 5836 5836 5836 5836 5836 5837 5837 5838 5838 5839 5839
5840 5841 5842 5842 5841 5841 5841 5841 5840 5839 5839 5838 5838 5838 5837 5837 5837 5837 5836 5836 5836 5836 5836 5835 5835 5835 5835 5834 5834 5834 5834 5834 5834 5834 5834 5834 5834 5834 5834 5834 5834 5834 5835 5835 5836 5836 5837 5837 5838
5836 5836 5837 5837 5837 5836 5837 5836 5836 5835 5834 5834 5834 5833 5833 5833 5833 5832 5832 5832 5832 5832 5832 5831 5831 5831 5831 5831 5831 5831 5831 5831 5831 5831 5831 5831 5831 5831 5832 5832 5832 5832 5833 5833 5834 5834 5835 5835 5836
5831 5832 5831 5832 5832 5832 5832 5833 5831 5830 5830 5829 5829 5828 5828 5828 5828 5828 5827 5827 5827 5827 5827 5827 5827 5827 5828 5828 5828 5828 5828 5828 5828 5828 5828 5828 5829 5829 5829 5830 5830 5830 5831 5831 5832 5832 5833 5833 5833
5825 5826 5826 5827 5826 5826 5826 5829 5826 5825 5824 5824 5823 5823 5823 5823 5822 5822 5822 5822 5822 5822 5822 5822 5822 5823 5823 5824 5824 5825 5825 5825 5825 5825 5825 5826 5826 5826 5827 5827 5827 5828 5828 5829 5830 5830 5830 5831 5831
Wind_Speed
4 4 4 4 4 4 3 3 3 3 3 3 3 2 2 2 2 3 3 4 4 5 5 5 5 5 5 5 5 5 5 6 6 6 6 6 6 6 6 5 5 5 5 5 6 6 6 7 7
3 3 3 3 3 4 3 3 3 3 3 3 3 3 2 3 3 3 4 4 5 5 5 5 5 6 6 6 6 6 6 7 6 6 6 6 7 7 7 7 7 7 6 7 6 6 7 8 8
2 2 3 3 3 3 4 4 4 4 4 4 4 4 4 4 3 3 4 5 5 5 5 6 6 7 7 7 7 7 8 7 7 7 7 6 7 8 8 8 8 8 8 7 7 7 7 8 8
2 2 2 2 3 3 4 4 4 4 5 5 5 5 5 4 4 4 5 5 6 6 7 7 7 8 8 8 8 8 8 8 8 8 7 7 7 8 9 9 9 9 9 9 8 8 8 9 9
2 2 2 3 3 3 4 4 4 4 5 5 5 6 6 5 5 5 5 5 6 6 7 7 7 7 7 8 8 8 8 8 9 8 8 8 8 9 9 10 10 10 10 10 10 10 10 10 9
1 2 2 3 3 3 4 4 4 4 5 5 6 6 6 6 5 5 5 6 6 7 7 7 8 8 8 8 8 8 8 8 9 9 8 8 9 9 9 10 11 10 10 11 11 11 10 10 10
1 2 2 3 3 4 4 5 5 5 6 6 6 6 6 7 7 6 6 6 7 7 7 7 8 8 8 8 8 9 9 9 9 9 9 9 9 9 9 10 11 10 11 11 11 10 10 10 9
2 2 2 3 4 4 4 5 5 5 6 6 6 6 7 7 8 8 8 7 7 7 7 8 8 8 8 9 9 9 9 9 9 9 10 9 9 8 9 9 9 9 10 10 10 10 11 10 10
2 2 3 4 4 4 5 5 5 5 6 7 7 7 7 8 8 8 8 8 8 8 7 8 8 8 8 9 9 10 9 9 9 10 10 9 9 9 9 9 9 10 10 10 10 11 11 11 11
3 3 4 4 5 5 5 6 6 6 6 7 7 8 8 8 8 8 9 8 8 8 8 8 8 7 8 8 9 9 9 10 10 10 10 9 9 9 9 9 9 10 10 10 10 11 11 11 11
5 4 4 5 5 5 6 6 6 7 7 8 8 8 8 8 8 8 9 9 9 9 8 8 7 7 7 7 8 9 9 10 10 10 10 10 10 9 9 9 10 10 10 10 10 11 11 11 11
6 6 5 5 5 6 6 7 7 7 8 9 9 9 8 8 8 9 9 9 8 8 8 8 7 7 7 7 8 8 9 9 10 10 9 9 9 9 9 9 10 10 10 10 10 10 10 10 10
8 7 6 6 6 7 7 7 7 7 8 9 9 9 8 8 9 9 9 9 8 8 7 8 7 7 8 7 7 8 9 9 9 9 9 9 9 9 9 9 9 9 10 10 9 9 9 9 9
8 8 7 7 7 8 8 8 8 8 8 9 9 8 8 8 9 9 8 8 8 8 7 8 7 8 8 8 7 8 8 8 8 8 8 9 9 9 9 9 9 9 9 9 9 9 8 9 9
9 8 8 8 8 8 9 9 9 9 10 10 9 9 9 9 9 9 8 8 8 8 8 8 8 8 8 8 8 8 8 8 8 8 8 8 8 8 8 9 9 9 9 9 10 9 9 9 9
10 9 10 9 9 9 10 10 10 10 10 10 10 9 9 9 9 9 9 8 8 8 8 8 9 9 9 9 8 9 9 9 8 8 8 8 8 8 8 9 9 9 8 8 9 9 9 9 9
11 10 10 10 10 10 10 10 10 10 10 10 10 9 9 9 9 9 9 8 8 8 8 9 9 9 10 10 9 9 8 9 8 8 8 8 8 7 8 8 8 8 8 8 8 9 9 9 9
12 12 12 12 11 11 11 11 10 10 11 10 10 10 9 9 9 9 9 9 8 8 8 8 8 9 9 9 9 9 9 8 8 7 7 7 7 7 7 7 7 8 8 8 8 8 9 9 9
13 13 13 13 12 12 12 12 12 11 11 11 10 10 9 9 10 10 9 9 9 9 8 8 8 8 8 8 9 9 9 8 8 7 7 6 6 7 7 7 7 8 7 8 8 8 9 8 8
13 13 13 14 13 13 13 13 13 12 12 12 11 10 9 10 10 10 10 10 10 9 9 9 9 9 9 9 8 8 8 7 7 7 7 7 7 7 6 6 7 7 8 7 7 7 7 7 7
14 14 14 14 14 14 14 14 14 13 13 12 12 11 10 10 10 10 10 10 10 9 9 9 9 9 9 9 8 8 7 7 7 7 8 7 7 7 7 7 8 8 8 8 7 6 6 6 6
15 15 14 14 14 15 14 14 14 14 13 13 13 13 12 11 11 11 10 10 10 10 10 10 10 9 9 9 8 8 7 7 6 6 7 8 8 9 9 9 8 8 9 8 7 6 6 6 6
15 15 15 15 15 15 15 15 14 14 14 14 14 14 13 13 12 11 11 11 11 11 11 11 10 10 9 9 8 8 8 7 7 7 7 8 8 8 8 9 8 8 8 8 7 7 7 7 7
15 15 16 16 16 16 15 15 15 14 14 14 14 14 14 14 13 12 12 11 12 12 11 11 11 10 10 9 8 8 8 8 8 8 8 8 8 8 8 8 8 8 9 9 8 7 7 6 6
16 16 16 16 16 16 15 16 15 15 14 14 14 14 14 14 13 14 13 13 12 12 12 12 11 11 11 10 9 8 8 8 8 8 8 8 9 9 8 8 8 8 9 9 8 8 7 7 6
16 16 16 16 16 16 16 15 15 14 15 14 14 14 14 14 14 14 14 14 13 13 13 12 12 11 11 11 10 9 9 9 9 9 9 8 8 8 8 8 8 8 8 8 8 8 8 8 7
16 17 17 17 17 16 16 15 14 14 15 15 14 14 15 15 15 15 15 15 14 14 14 13 13 12 12 12 11 11 10 10 10 9 9 9 9 9 9 9 8 8 8 8 8 8 8 8 8
17 17 17 17 17 17 16 15 15 15 15 15 16 15 16 16 16 16 16 16 16 15 15 14 14 13 13 13 13 12 11 11 11 11 10 10 9 10 9 9 9 9 9 9 9 9 9 9 9
18 18 18 18 18 17 17 17 16 16 15 16 16 16 17 18 17 17 17 17 17 17 16 16 15 14 14 14 13 12 12 12 12 12 11 10 9 9 10 10 9 10 10 10 10 9 9 9 9
19 19 19 19 19 19 18 18 17 16 17 17 18 18 18 18 19 18 18 18 18 18 18 17 16 16 15 15 14 14 13 13 12 12 12 11 10 10 10 10 10 10 10 10 10 10 9 9 9
Wind_Direction
68 61 52 51 45 34 18 14 10 10 1 357 356 344 316 281 253 251 260 259 263 265 266 269 272 275 274 271 269 266 257 256 249 245 246 248 245 239 239 245 248 249 252 251 249 250 250 251 252
64 55 46 40 33 17 4 2 358 356 352 351 348 338 317 302 289 275 269 265 268 269 269 269 274 276 274 271 268 266 261 256 252 250 250 250 247 247 252 255 255 255 256 254 249 253 256 256 255
50 38 34 27 19 358 349 352 349 342 339 342 336 331 325 319 305 287 278 271 269 268 270 273 273 272 273 269 269 268 264 256 254 253 252 253 253 252 254 254 255 255 256 251 249 254 259 258 259
16 12 8 3 1 353 347 350 346 341 337 332 332 329 328 323 310 303 295 286 278 274 274 273 273 273 274 273 270 270 264 256 256 258 255 258 258 256 253 253 254 255 253 252 251 254 258 256 256
1 7 3 356 349 344 341 340 340 339 340 338 333 334 331 331 317 312 306 299 290 283 277 276 277 274 272 270 268 267 262 260 257 260 262 262 262 260 255 254 254 258 256 253 252 253 256 257 254
347 1 2 349 339 333 331 330 334 341 338 334 331 332 326 325 322 316 312 307 294 285 281 282 283 276 271 269 268 263 258 260 258 260 264 265 264 262 258 258 257 257 255 254 252 251 253 256 256
321 335 342 333 327 325 324 326 330 334 333 332 330 327 324 320 318 314 314 309 300 290 286 285 285 278 273 272 270 263 261 260 259 262 268 267 263 261 258 257 258 257 256 254 253 252 253 256 257
298 317 324 322 322 319 324 324 325 326 328 330 330 327 322 318 317 317 315 310 307 298 290 287 285 281 277 274 270 264 264 262 263 265 268 265 263 262 259 258 259 259 257 255 255 257 260 258 260
278 295 313 318 319 317 323 324 321 320 322 324 324 324 322 319 317 316 315 311 306 301 291 287 283 280 279 274 271 267 267 265 268 269 267 264 262 261 261 260 257 256 257 255 255 259 263 263 265
270 288 303 309 311 311 318 317 313 315 319 320 320 320 320 320 317 316 314 311 307 303 297 290 286 283 281 278 272 269 270 270 270 269 265 262 261 261 263 261 256 256 256 255 256 258 263 262 262
265 280 292 301 305 307 310 311 310 311 312 314 315 315 319 319 317 316 312 308 305 303 299 295 289 287 284 278 271 269 273 273 272 269 264 262 260 260 262 261 256 256 258 258 257 259 263 262 259
262 270 283 292 298 303 307 308 306 305 308 311 313 314 316 314 314 313 314 310 307 304 300 293 289 287 288 284 278 272 273 276 275 269 261 259 259 259 258 258 255 256 260 260 259 263 262 260 256
258 265 274 281 289 296 301 301 300 302 303 308 311 309 309 310 313 315 315 312 311 308 299 291 290 289 289 284 282 277 276 277 273 266 261 259 258 258 257 253 253 255 256 257 259 261 260 258 254
260 263 270 277 283 288 294 298 298 300 300 303 305 303 304 309 313 315 314 310 310 304 300 291 291 294 292 284 278 277 280 281 276 267 263 259 255 255 252 250 251 252 254 255 259 261 258 256 258
262 265 269 274 280 285 293 296 302 302 300 301 303 302 301 304 307 307 307 308 308 302 297 291 290 296 298 295 288 280 278 278 274 268 262 258 254 251 249 250 251 253 252 255 258 260 256 258 260
262 266 270 272 276 284 291 296 301 301 300 301 303 301 298 299 301 304 305 307 307 301 298 294 294 297 297 295 292 291 282 275 271 266 262 257 255 253 247 246 248 250 252 255 257 258 257 256 258
259 263 268 270 274 281 288 294 296 296 297 298 299 298 297 299 300 302 304 305 303 302 301 297 295 295 298 294 292 292 287 278 270 266 264 258 254 249 246 250 250 248 250 251 256 256 258 257 254
260 262 266 271 273 278 284 289 294 292 292 296 297 295 293 294 296 297 300 300 299 300 301 299 298 296 299 299 293 287 286 278 271 266 262 256 251 248 248 250 248 248 252 253 253 254 256 255 251
259 260 264 268 272 275 278 283 289 289 287 290 292 292 291 291 292 292 295 296 297 297 297 296 295 296 298 297 295 291 285 277 271 263 258 253 253 249 248 246 247 250 253 254 255 259 257 252 250
259 260 263 265 270 274 277 280 285 286 284 284 286 288 290 290 290 290 291 294 298 297 294 294 291 291 295 294 293 289 284 274 267 258 254 254 254 249 246 247 249 253 254 254 258 259 255 248 243
259 261 263 265 269 274 278 278 279 281 281 279 280 282 284 285 286 286 288 290 293 294 292 292 290 289 291 291 290 289 284 275 267 262 256 255 252 249 247 252 253 253 252 252 253 254 248 246 243
261 262 265 266 269 274 275 277 277 277 277 275 275 277 277 280 281 282 284 286 288 291 290 291 288 287 288 290 288 285 283 277 273 267 261 257 253 249 249 253 255 252 247 249 252 247 243 248 248
262 264 265 267 270 275 277 277 276 277 275 271 272 273 275 276 278 277 278 282 284 288 289 288 285 282 281 283 284 279 274 270 271 273 268 264 258 255 253 249 251 251 248 245 245 245 245 246 246
264 265 266 268 272 274 276 278 277 277 275 272 271 272 273 274 277 276 276 277 281 284 286 286 282 279 277 278 278 273 268 267 267 269 269 268 263 257 253 247 246 252 250 245 243 241 245 246 249
264 266 268 270 271 274 275 275 275 275 273 272 272 273 272 272 273 275 275 275 278 281 283 283 281 279 276 275 272 267 264 265 265 265 268 268 263 254 250 250 247 250 247 243 241 240 239 246 248
264 262 265 269 272 276 276 275 274 274 271 270 270 270 271 270 272 273 273 275 276 278 280 279 277 275 275 272 269 266 265 266 264 265 265 263 260 255 250 253 252 246 239 237 240 239 242 244 243
265 264 265 268 271 273 275 274 273 272 272 270 268 269 269 270 271 272 271 273 275 276 277 276 273 271 269 269 268 268 268 264 261 264 264 261 261 256 252 252 248 243 236 237 239 241 242 243 242
263 265 265 268 273 273 273 272 271 272 272 270 270 271 271 271 272 272 271 272 273 274 274 274 272 270 267 266 266 265 264 264 263 264 262 261 260 255 252 249 248 244 241 241 243 244 245 244 245
262 262 265 269 270 272 273 273 273 273 272 271 271 272 272 273 273 272 271 271 271 271 271 270 270 269 265 264 264 264 263 262 264 262 259 257 256 252 247 247 246 242 240 240 241 243 244 244 244
263 264 266 269 271 272 272 273 272 272 272 272 272 273 273 272 272 272 272 271 270 269 268 268 266 265 263 263 262 260 260 260 261 258 257 256 253 250 247 246 244 242 240 238 240 242 244 243 245